(431580) = 2007 VE44

Discovered at Kitt Peak on 2007-11-01 by Spacewatch.

Orbit

Orbit type: Main Belt

Note: WebGL enabled browser required.

epoch2023-09-13.0
epoch JD2460200.5
perihelion date2019-10-28.74333
perihelion JD2458785.24333
argument of perihelion (°)204.51049
ascending node (°)281.63902
inclination (°)6.53024
eccentricity0.0800207
perihelion distance (AU)2.8599753
Tisserand w.r.t. Jupiter3.2
ΔV w.r.t. Earth (km/sec)10.7
semimajor axis (AU)3.1087387
mean anomaly (°)254.48532
mean daily motion (°/day)0.17981570
aphelion distance (AU)3.358
period (years)5.48
P-vector [x]-0.58725802
P-vector [y]0.76011459
P-vector [z]0.27812557
Q-vector [x]-0.80169850
Q-vector [y]-0.49896314
Q-vector [z]-0.32911291
absolute magnitude15.99
phase slope0.15
uncertainty0
referenceMPO 779985
observations used258
oppositions10
arc length (days)5881
first opposition used2007
last opposition used2023
residual rms (arc-secs)0.71
perturbers coarse indicatorM-v
perturbers precise indicator003Ek
first observation date used2007-10-09.0
last observation date used2023-11-15.0
computer nameMPCLINUX
Minimum Orbit Intersection Distances (in AU)
for orbit epoch: 2460200.5, reference: E2023-W07
Mercury2.53031
Venus2.14518
Earth1.87566
Mars1.22508
Jupiter1.73141
Saturn6.1353
Uranus15.5447
Neptune26.6745

Observations

263 total observations over interval: 2007 10 09.43293 – 2023 11 15.290187
These data are available for download (format description).

Date (UT) J2000 RA J2000 Dec Magn Location Ref
2007 10 09.43293 03 20 49.34 +26 24 36.2 20.9 V 691 – Steward Observatory, Kitt Peak-Spacewatch MPS 229167
2007 10 09.45061 03 20 48.85 +26 24 35.5 20.9 V 691 – Steward Observatory, Kitt Peak-Spacewatch MPS 229167
2007 10 09.46829 03 20 48.33 +26 24 35.1 20.9 V 691 – Steward Observatory, Kitt Peak-Spacewatch MPS 229167
2007 10 18.44315 03 15 59.46 +26 13 57.9 20.7 V 691 – Steward Observatory, Kitt Peak-Spacewatch MPS 229167
2007 10 18.46089 03 15 58.78 +26 13 55.8 20.7 V 691 – Steward Observatory, Kitt Peak-Spacewatch MPS 229167
2007 10 18.47863 03 15 58.09 +26 13 53.9 20.6 V 691 – Steward Observatory, Kitt Peak-Spacewatch MPS 229167
2007 11 01.15037 03 05 56.15 +25 37 18.4   691 – Steward Observatory, Kitt Peak-Spacewatch MPS 225216
2007 11 01.16802 03 05 55.28 +25 37 15.0   691 – Steward Observatory, Kitt Peak-Spacewatch MPS 225216
2007 11 01.18567 03 05 54.38 +25 37 11.5   691 – Steward Observatory, Kitt Peak-Spacewatch MPS 225216
2007 11 05.14241 03 02 36.62 +25 22 12.5 20.0 V 691 – Steward Observatory, Kitt Peak-Spacewatch MPS 225217
2007 11 05.16009 03 02 35.75 +25 22 08.1 20.5 V 691 – Steward Observatory, Kitt Peak-Spacewatch MPS 225217
2007 11 05.17779 03 02 34.82 +25 22 04.1 20.3 V 691 – Steward Observatory, Kitt Peak-Spacewatch MPS 225217
2007 11 07.32782 03 00 44.97 +25 13 11.4 20.5   704 – Lincoln Laboratory ETS, New Mexico MPS 225217
2007 11 07.34020 03 00 44.33 +25 13 07.6 20.2   704 – Lincoln Laboratory ETS, New Mexico MPS 225217
2007 11 07.35258 03 00 43.63 +25 13 05.5 20.4   704 – Lincoln Laboratory ETS, New Mexico MPS 225217
2007 11 07.36499 03 00 43.11 +25 13 01.7 20.4   704 – Lincoln Laboratory ETS, New Mexico MPS 225217
2007 11 13.26868 02 55 40.22 +24 46 17.5 20.1 V G96 – Mt. Lemmon Survey MPS 227068
2007 11 13.27613 02 55 39.82 +24 46 15.6 20.0 V G96 – Mt. Lemmon Survey MPS 227068
2007 11 13.28363 02 55 39.43 +24 46 13.2 20.1 V G96 – Mt. Lemmon Survey MPS 227068
2007 11 13.29106 02 55 39.07 +24 46 11.1 20.1 V G96 – Mt. Lemmon Survey MPS 227068
2007 11 17.08404 02 52 27.63 +24 27 31.5 20.2 V 691 – Steward Observatory, Kitt Peak-Spacewatch MPS 228363
2007 11 17.09919 02 52 26.89 +24 27 26.5 20.0 V 691 – Steward Observatory, Kitt Peak-Spacewatch MPS 228363
2007 11 17.11434 02 52 26.13 +24 27 22.8 20.2 V 691 – Steward Observatory, Kitt Peak-Spacewatch MPS 228363
2007 11 20.09902 02 49 59.57 +24 12 05.9 20.4 V 691 – Steward Observatory, Kitt Peak-Spacewatch MPS 229167
2007 11 20.11668 02 49 58.69 +24 12 00.7 20.5 V 691 – Steward Observatory, Kitt Peak-Spacewatch MPS 229167
2007 11 20.13434 02 49 57.82 +24 11 55.2 20.3 V 691 – Steward Observatory, Kitt Peak-Spacewatch MPS 229167
2007 12 09.74197 02 37 01.66 +22 29 09.1 20.7 R 185 – Observatoire Astronomique Jurassien-Vicques MPS 230942
2007 12 09.75535 02 37 01.24 +22 29 04.2 20.0 R 185 – Observatoire Astronomique Jurassien-Vicques MPS 230942
2009 02 03.37087 09 36 12.27 +07 41 09.4 20.0 V G96 – Mt. Lemmon Survey MPS 276557
2009 02 03.37482 09 36 12.06 +07 41 09.9 19.9 V G96 – Mt. Lemmon Survey MPS 276557
2009 02 03.37874 09 36 11.88 +07 41 10.1 20.1 V G96 – Mt. Lemmon Survey MPS 276557
2009 02 03.38273 09 36 11.66 +07 41 10.6 20.1 V G96 – Mt. Lemmon Survey MPS 276557
2009 02 03.40899 09 36 10.33 +07 41 13.9 20.1 V G96 – Mt. Lemmon Survey MPS 276557
2009 02 03.41191 09 36 10.18 +07 41 14.1 20.0 V G96 – Mt. Lemmon Survey MPS 276557
2009 02 03.41483 09 36 10.00 +07 41 14.1 19.9 V G96 – Mt. Lemmon Survey MPS 276557
2009 02 03.41770 09 36 09.90 +07 41 14.9 19.8 V G96 – Mt. Lemmon Survey MPS 276557
2009 02 04.29933 09 35 26.34 +07 42 56.3 20.0 V G96 – Mt. Lemmon Survey MPS 276557
2009 02 04.30458 09 35 26.05 +07 42 56.9 20.0 V G96 – Mt. Lemmon Survey MPS 276557
2009 02 04.30991 09 35 25.76 +07 42 57.7 20.1 V G96 – Mt. Lemmon Survey MPS 276557
2009 02 04.31498 09 35 25.51 +07 42 58.3 20.1 V G96 – Mt. Lemmon Survey MPS 276557
2012 09 26.385234 00 35 48.550 +14 08 01.80 20.2 i F51 – Pan-STARRS 1, Haleakala MPS 433359
2012 09 26.397526 00 35 47.976 +14 07 58.86 20.1 i F51 – Pan-STARRS 1, Haleakala MPS 433359
2012 09 26.500659 00 35 43.187 +14 07 34.08 20.1 r F51 – Pan-STARRS 1, Haleakala MPS 433359
2012 09 26.511663 00 35 42.674 +14 07 31.44 20.2 r F51 – Pan-STARRS 1, Haleakala MPS 433359
2012 10 08.32825 00 26 46.42 +13 13 11.3 19.8 V G96 – Mt. Lemmon Survey MPS 434156
2012 10 08.33795 00 26 45.99 +13 13 08.4 20.2 V G96 – Mt. Lemmon Survey MPS 434156
2012 10 08.34758 00 26 45.56 +13 13 05.4 20.2 V G96 – Mt. Lemmon Survey MPS 434156
2012 10 09.341251 00 26 01.323 +13 08 01.94 20.3 w F51 – Pan-STARRS 1, Haleakala MPS 435173
2012 10 09.355352 00 26 00.673 +13 07 57.52 20.3 w F51 – Pan-STARRS 1, Haleakala MPS 435173
2012 10 09.369547 00 26 00.021 +13 07 53.24 20.3 w F51 – Pan-STARRS 1, Haleakala MPS 435173
2012 10 09.383865 00 25 59.363 +13 07 48.84 20.3 w F51 – Pan-STARRS 1, Haleakala MPS 435173
2012 11 01.246540 00 11 51.088 +11 06 56.79 20.6 r F51 – Pan-STARRS 1, Haleakala MPS 439537
2012 11 01.370786 00 11 47.613 +11 06 19.98 20.4 i F51 – Pan-STARRS 1, Haleakala MPS 439537
2012 11 01.382692 00 11 47.266 +11 06 16.55 20.6 i F51 – Pan-STARRS 1, Haleakala MPS 439537
2015 01 22.61113 12 55 39.392 -13 56 56.15 21.0 w F51 – Pan-STARRS 1, Haleakala MPS 585682
2015 01 22.62240 12 55 39.645 -13 56 59.88 21.1 w F51 – Pan-STARRS 1, Haleakala MPS 585682
2015 01 22.63371 12 55 39.901 -13 57 03.47 21.1 w F51 – Pan-STARRS 1, Haleakala MPS 585682
2015 01 22.64497 12 55 40.138 -13 57 07.25 21.0 w F51 – Pan-STARRS 1, Haleakala MPS 585682
2015 02 25.52559 12 56 34.140 -15 43 52.54 20.5 w F51 – Pan-STARRS 1, Haleakala MPS 583303
2015 02 25.53653 12 56 33.892 -15 43 53.04 20.6 w F51 – Pan-STARRS 1, Haleakala MPS 583303
2015 02 25.54753 12 56 33.634 -15 43 53.33 20.6 w F51 – Pan-STARRS 1, Haleakala MPS 583303
2015 02 25.55854 12 56 33.390 -15 43 53.72 20.7 w F51 – Pan-STARRS 1, Haleakala MPS 583303
2015 03 15.33968 12 47 12.44 -15 27 11.5 20.6 r G45 – Space Surveillance Telescope, Atom Site MPS 595318
2015 03 15.34409 12 47 12.25 -15 27 11.2 19.5 r G45 – Space Surveillance Telescope, Atom Site MPS 595318
2015 03 15.34922 12 47 12.06 -15 27 10.3 20.2 r G45 – Space Surveillance Telescope, Atom Site MPS 595318
2015 03 15.35919 12 47 11.64 -15 27 09.0 20.5 r G45 – Space Surveillance Telescope, Atom Site MPS 595318
2015 03 24.36559 12 40 42.22 -14 58 49.7 20.2 r G45 – Space Surveillance Telescope, Atom Site MPS 600664
2015 03 24.38157 12 40 41.50 -14 58 46.3 20.2 r G45 – Space Surveillance Telescope, Atom Site MPS 600664
2015 03 24.39097 12 40 41.01 -14 58 44.2 19.7 r G45 – Space Surveillance Telescope, Atom Site MPS 600664
2015 03 24.39858 12 40 40.68 -14 58 42.3 20.5 r G45 – Space Surveillance Telescope, Atom Site MPS 600664
2015 03 25.36221 12 39 56.81 -14 54 59.2 20.0 r G45 – Space Surveillance Telescope, Atom Site MPS 600664
2015 03 25.36420 12 39 56.71 -14 54 59.0 20.1 r G45 – Space Surveillance Telescope, Atom Site MPS 600664
2015 03 25.37144 12 39 56.33 -14 54 56.2 19.9 r G45 – Space Surveillance Telescope, Atom Site MPS 600664
2015 03 25.37916 12 39 55.99 -14 54 55.1 20.3 r G45 – Space Surveillance Telescope, Atom Site MPS 600664
2015 03 25.38853 12 39 55.54 -14 54 53.6 20.2 r G45 – Space Surveillance Telescope, Atom Site MPS 600664
2015 03 25.39610 12 39 55.20 -14 54 51.7 19.8 r G45 – Space Surveillance Telescope, Atom Site MPS 600664
2015 04 11.31099 12 27 03.59 -13 33 50.0 19.4 V 703 – Catalina Sky Survey MPS 600664
2015 04 11.31599 12 27 03.39 -13 33 47.2 19.6 V 703 – Catalina Sky Survey MPS 600664
2015 04 11.32099 12 27 03.11 -13 33 47.1 19.7 V 703 – Catalina Sky Survey MPS 600664
2015 04 25.36410 12 18 13.621 -12 17 17.06 20.2 r F51 – Pan-STARRS 1, Haleakala MPS 604595
2015 04 25.37532 12 18 13.254 -12 17 13.52 20.2 r F51 – Pan-STARRS 1, Haleakala MPS 604595
2015 04 25.39815 12 18 12.506 -12 17 06.43 20.3 r F51 – Pan-STARRS 1, Haleakala MPS 604595
2017 07 25.51983 22 51 35.022 +00 01 12.57 21.3 w F51 – Pan-STARRS 1, Haleakala MPS 807861
2017 07 25.53040 22 51 34.775 +00 01 12.66 21.2 w F51 – Pan-STARRS 1, Haleakala MPS 807861
2017 07 25.54096 22 51 34.518 +00 01 12.74 21.2 w F51 – Pan-STARRS 1, Haleakala MPS 807861
2017 07 25.55155 22 51 34.266 +00 01 13.00 21.4 w F51 – Pan-STARRS 1, Haleakala MPS 807861
2017 08 28.33120 22 30 50.76 -00 57 42.5 20.9 V G96 – Mt. Lemmon Survey MPS 814981
2017 08 28.33710 22 30 50.53 -00 57 43.1 20.7 V G96 – Mt. Lemmon Survey MPS 814981
2017 08 28.34301 22 30 50.22 -00 57 44.2 20.8 V G96 – Mt. Lemmon Survey MPS 814981
